Vorticity
-11 21 23 29 1 3 5 8 6 1 7 6 14 11 8 44 -8 -20 -11 27 21 13
-43 8 5 4 9 8 1 5 2 3 -1 -1 -1 9 12 1 -22 -2 -3 27 2 20
28 -22 33 31 5 0 5 5 6 3 4 6 13 8 8 8 3 19 14 11 24 13
-5 -29 2 25 10 9 10 7 7 6 5 4 12 14 8 5 1 9 18 13 8 6
-6 15 0 -2 19 11 11 4 4 6 4 3 6 9 11 13 -3 0 12 -2 -15 -7
4 5 -23 18 40 1 8 5 6 -1 2 0 0 11 2 8 11 2 3 -9 7 5
32 -43 -21 21 10 19 13 11 0 11 11 14 9 6 13 5 4 11 7 11 10 10
-9 8 30 32 35 9 4 13 7 5 1 2 6 10 6 8 11 12 4 0 5 1
16 11 21 38 26 14 18 9 9 9 9 4 4 8 15 14 17 12 15 19 25 17
33 3 5 -38 -7 29 11 8 12 11 10 13 11 6 10 4 8 -0 -0 10 6 8
16 33 12 -0 52 9 21 3 11 4 2 4 9 10 6 10 9 1 -3 0 5 11
44 -3 7 17 32 -10 39 22 26 5 -8 -1 0 2 8 2 7 9 14 15 3 2
33 8 13 37 -11 -45 20 23 13 10 6 12 14 13 7 3 7 6 16 16 16 8
9 26 18 32 10 30 11 1 1 2 1 7 11 11 11 9 7 7 15 9 12 8
Height
5616 5625 5638 5646 5657 5668 5676 5687 5695 5707 5717 5725 5733 5742 5749 5756 5762 5769 5777 5781 5787 5793
5600 5606 5622 5634 5645 5655 5665 5675 5686 5695 5707 5716 5724 5736 5743 5749 5757 5763 5771 5776 5780 5784
5588 5595 5608 5620 5633 5644 5654 5663 5674 5684 5696 5706 5715 5724 5732 5739 5746 5753 5761 5766 5770 5774
5572 5586 5597 5609 5620 5631 5641 5652 5661 5672 5683 5694 5705 5714 5723 5730 5738 5745 5748 5755 5759 5765
5563 5575 5587 5595 5607 5617 5630 5642 5651 5660 5672 5684 5695 5704 5713 5721 5730 5735 5740 5748 5751 5757
5548 5564 5571 5579 5590 5605 5617 5629 5639 5648 5661 5674 5684 5693 5702 5710 5717 5724 5731 5737 5740 5747
5538 5551 5558 5566 5577 5591 5604 5615 5627 5639 5651 5661 5671 5682 5690 5698 5706 5713 5720 5724 5731 5736
5524 5535 5547 5555 5566 5579 5591 5604 5616 5627 5639 5649 5660 5670 5680 5688 5695 5703 5709 5714 5719 5726
5512 5523 5536 5545 5556 5567 5579 5591 5603 5615 5627 5638 5650 5659 5667 5675 5683 5690 5698 5704 5709 5714
5502 5511 5522 5534 5548 5557 5569 5581 5593 5604 5616 5628 5638 5648 5656 5663 5671 5679 5687 5693 5699 5704
5488 5499 5511 5527 5534 5545 5557 5569 5581 5593 5605 5615 5627 5637 5644 5651 5659 5667 5676 5683 5688 5693
5477 5490 5502 5515 5523 5534 5544 5557 5570 5581 5592 5603 5614 5623 5630 5637 5646 5655 5664 5671 5676 5682
5468 5480 5488 5500 5512 5520 5530 5547 5558 5569 5580 5591 5600 5609 5617 5625 5634 5643 5652 5659 5664 5670
5459 5466 5476 5487 5500 5510 5523 5535 5546 5558 5568 5577 5587 5595 5604 5612 5622 5630 5636 5644 5651 5657